Content
SEND FEEDBACK

Daily
Averages
Monthly
Summary
Turkey

KILIS, TURKEY


Home > Middle East > Turkey
Elevation: 2093 feet     Latitude: 36 06N     Longitude: 037 24E

WEATHER
 
SELECT A DAY
Number of Records: 216,145;   Date Range: 7/1/96 - 12/19/14
 
SHARE

PRINT THIS DATA

[ ← Previous Day ]
WEATHER ALMANAC - FEBRUARY 24, 2013
[ Next Day → ]
[ °C ]   °F
Weather ElementAverageHighLow
Temperature50.6 °F62.6 °F (12:50 pm)39.2 °F (6:20 am)
Dewpoint40 °F44.6 °F (9:20 am)32 °F (3:50 pm)
Humidity70 %100 % (6:20 am)32 % (3:50 pm)
Barometer30.16 in30.27 in (9:50 pm)30.06 in (12:50 am)
Wind Speed3.9 mph11.5 mph (3:50 pm)
Weather ElementAverage
Visibility6.2 mi
Wind DirectionSSE (161 °)

Weather ElementTotal
Precipitation---
Heating Degree Days14.1 (Base 65)
Growing Degree Days0.9 (Base 50)
Averaged from 51 records on February 24, 2013
WEATHER CONDITIONS BREAKOUT
WIND DIRECTION BREAKOUT
WEATHER BY HOUR - FEBRUARY 24, 2013
[ °C ]   °F
Local TimeTemperatureDewpointHumidityBarometerVisibilityWind DirectionWind SpeedGust SpeedPrecipitationEventsConditions
12:50 AM48.2 °F42.8 °F82 %30.06 in6.2 miNorth (350°)10.4 mphMostly Cloudy
1:20 AM46.4 °F42.8 °F87 %30.06 in6.2 miNorth (360°)9.2 mphMostly Cloudy
1:50 AM46.4 °F42.8 °F87 %30.06 in6.2 miNNW (340°)8.1 mphMostly Cloudy
2:00 AM46.0 °F42.0 °F79 %30.06 in6.0 miNNW (340°)8.1 mphPartly Cloudy
2:20 AM44.6 °F41.0 °F87 %30.06 in6.2 miNorth (360°)4.6 mphMostly Cloudy
2:50 AM44.6 °F41.0 °F87 %30.06 in6.2 miNorth (350°)8.1 mphMostly Cloudy
3:20 AM42.8 °F41.0 °F93 %30.09 in6.2 miNorth (350°)6.9 mphMostly Cloudy
3:50 AM42.8 °F41.0 °F93 %30.09 in6.2 miVariable2.3 mphMostly Cloudy
4:20 AM42.8 °F39.2 °F87 %30.09 in6.2 miNW (310°)1.2 mphMostly Cloudy
4:50 AM42.8 °F41.0 °F93 %30.09 in6.2 miNNW (330°)5.8 mphMostly Cloudy
5:20 AM42.8 °F41.0 °F93 %30.09 in6.2 miNorth (350°)3.5 mphMostly Cloudy
5:50 AM42.8 °F39.2 °F87 %30.12 in6.2 miVariable2.3 mphMostly Cloudy
6:20 AM39.2 °F39.2 °F100 %30.12 in6.2 miCalmMostly Cloudy
6:50 AM39.2 °F37.4 °F93 %30.12 inVariable2.3 mphClear
7:20 AM41.0 °F39.2 °F93 %30.15 inCalmClear
7:50 AM46.4 °F42.8 °F87 %30.15 inCalmClear
8:00 AM46.0 °F42.0 °F82 %30.18 in6.0 miCalm
8:20 AM50.0 °F42.8 °F76 %30.15 inCalmClear
8:50 AM51.8 °F42.8 °F71 %30.18 inCalmClear
9:20 AM53.6 °F44.6 °F72 %30.18 inVariable1.2 mphClear
9:50 AM55.4 °F42.8 °F63 %30.18 inVariable1.2 mphClear
10:20 AM57.2 °F42.8 °F59 %30.18 inVariable1.2 mphClear
10:50 AM59.0 °F44.6 °F59 %30.18 inVariable2.3 mphClear
11:20 AM59.0 °F41.0 °F51 %30.18 inWest (260°)4.6 mphClear
11:50 AM60.8 °F41.0 °F48 %30.15 inWSW (240°)8.1 mphClear
12:20 PM60.8 °F37.4 °F42 %30.15 inVariable5.8 mphClear
12:50 PM62.6 °F37.4 °F39 %30.15 inVariable4.6 mphClear
1:20 PM62.6 °F37.4 °F39 %30.15 in6.2 miVariable4.6 mphScattered Clouds
1:50 PM60.8 °F39.2 °F45 %30.15 in6.2 miWNW (300°)8.1 mphScattered Clouds
2:00 PM60.0 °F39.0 °F34 %30.16 in6.0 miWNW (300°)8.1 mphPartly Cloudy
2:20 PM62.6 °F39.2 °F42 %30.15 in6.2 miWest (280°)4.6 mphScattered Clouds
2:50 PM62.6 °F35.6 °F37 %30.15 in6.2 miNW (310°)6.9 mphScattered Clouds
3:20 PM62.6 °F35.6 °F37 %30.15 in6.2 miWest (280°)9.2 mphScattered Clouds
3:50 PM62.6 °F32.0 °F32 %30.15 in6.2 miWNW (300°)11.5 mphScattered Clouds
4:20 PM60.8 °F33.8 °F36 %30.18 in6.2 miNW (320°)11.5 mphScattered Clouds
4:50 PM59.0 °F37.4 °F45 %30.18 in6.2 miNNW (340°)6.9 mphScattered Clouds
5:20 PM57.2 °F39.2 °F51 %30.18 in6.2 miNW (310°)5.8 mphPartly Cloudy
5:50 PM53.6 °F39.2 °F58 %30.18 in6.2 miWNW (300°)6.9 mphPartly Cloudy
6:20 PM53.6 °F39.2 °F58 %30.21 inNW (320°)4.6 mphClear
6:50 PM51.8 °F39.2 °F62 %30.21 inVariable1.2 mphClear
7:20 PM50.0 °F41.0 °F71 %30.21 inCalmClear
7:50 PM46.4 °F41.0 °F81 %30.24 inCalmClear
8:00 PM46.0 °F40.0 °F74 %30.26 in6.0 miCalm
8:20 PM46.4 °F41.0 °F81 %30.24 inCalmClear
8:50 PM46.4 °F41.0 °F81 %30.24 inCalmClear
9:20 PM44.6 °F39.2 °F81 %30.24 inVariable1.2 mphClear
9:50 PM44.6 °F39.2 °F81 %30.27 inWest (260°)4.6 mphClear
10:20 PM44.6 °F39.2 °F81 %30.27 inCalmClear
10:50 PM42.8 °F39.2 °F87 %30.27 inNNW (330°)2.3 mphClear
11:20 PM41.0 °F39.2 °F93 %30.27 inCalmClear
11:50 PM41.0 °F39.2 °F93 %30.27 inCalmClear
Hourly data recorded from LTAJ, located miles away from Kilis, Turkey







STORIES FROM OUR PARTNERS